#timestamp,LO_Frequency,Hit,StdDev 
1594116015.3,286046996.6,N
1594116035.2,286046997.0,N
1594116055.0,286046996.6,N
1594116055.9,286046996.6,N
1594116075.8,286046997.6,N
1594116095.6,286046996.6,N
1594116115.4,286046997.6,N
1594116135.3,286046997.8,N
1594116155.1,286046996.7,N
1594116175.9,286046999.2,N
1594116195.7,286046999.5,N
1594116215.5,286046996.8,N
1594116235.4,286046996.9,N
1594116255.2,286046999.1,N
1594116275.0,286046996.8,N
1594116275.9,286046996.8,N
1594116295.8,286046996.7,N
1594116315.6,286046997.0,N
1594116335.5,286046999.4,N
1594116355.3,286046999.1,N
1594116375.1,286046999.0,N
1594116395.9,286046998.5,N
1594116415.7,286046999.2,N
1594116435.6,286046997.0,N
1594116455.4,286046999.1,N
1594116475.2,286046998.8,N
1594116495.1,286046996.9,N
1594116496.0,286046996.9,N
1594116515.8,286046998.4,N
1594116535.7,286046998.9,N
1594116555.5,286046999.0,N
1594116575.3,286046999.6,N
1594116595.2,286046998.4,N
1594116615.0,286046998.6,N
1594116615.9,286046998.6,N
1594116635.7,286046998.9,N
1594116655.6,286046998.6,N
1594116675.4,286046998.1,N
1594116695.3,286046998.6,N
1594116715.1,286046998.3,N
1594116716.0,286046998.3,N
1594116735.8,286047001.9,N
1594116755.7,286047000.2,N
1594116775.5,286047004.2,Y
1594116795.4,286047004.5,P
1594116815.2,286047007.1,N
1594116835.0,286047004.7,N
1594116835.9,286047004.7,N
1594116855.8,286047005.8,N
1594116875.6,286047001.8,N
1594116895.4,286047003.5,N
1594116915.3,286047002.0,N
1594116935.1,286047002.3,N
1594116955.9,286046999.8,N
1594116975.7,286047001.7,N
1594116995.5,286047004.6,N
1594117015.4,286047004.1,N
1594117035.2,286047004.0,N
1594117055.1,286047005.7,N
1594117056.0,286047005.7,N
1594117075.8,286047007.3,Y
1594117095.6,286046999.8,P
1594117115.5,286046998.3,N
1594117135.3,286046997.1,N
1594117155.2,286046998.5,N
1594117175.9,286046998.9,N
1594117195.7,286046997.0,N
1594117215.6,286046998.6,N
1594117235.4,286046999.8,N
1594117255.2,286046999.1,N
1594117275.1,286046997.3,N
1594117276.0,286046997.3,N
1594117295.8,286046996.9,N
1594117315.7,286046997.1,N
1594117335.5,286046995.0,N
1594117355.3,286046997.8,N
1594117375.2,286046996.8,N
1594117395.0,286046997.8,N
1594117395.9,286046997.8,N
1594117415.8,286046996.9,N
1594117435.6,286046996.8,N
1594117455.4,286046995.3,N
1594117475.3,286046996.4,N
1594117495.1,286046993.5,Y
1594117515.9,286046997.5,P
1594117535.7,286046997.8,P
1594117555.5,286046997.6,P
1594117575.4,286046999.5,Y
1594117595.2,286047001.6,P
1594117615.1,286047002.7,N
1594117616.0,286047002.7,N
1594117635.8,286047001.9,N
1594117655.6,286047002.3,N
1594117675.5,286047002.3,N
1594117695.3,286047002.5,N
1594117715.2,286047000.0,N
1594117735.9,286047001.9,N
1594117755.7,286047001.0,N
1594117775.6,286047004.3,N
1594117795.4,286047001.9,N
1594117815.2,286047000.0,N
1594117835.1,286047000.7,N
1594117836.0,286047000.7,N
1594117855.8,286046998.9,N
1594117875.7,286046998.1,N
1594117895.5,286046998.7,N
1594117915.3,286046999.3,N
1594117935.2,286047001.2,N
1594117955.0,286046998.3,N
1594117955.9,286046998.3,N
1594117975.8,286046999.3,N
1594117995.6,286046998.9,N
1594118015.4,286046998.3,N
1594118035.3,286046998.3,N
1594118055.1,286046998.6,N
1594118075.8,286047000.5,N
1594118095.7,286046998.6,N
1594118115.5,286047001.2,N
1594118135.4,286047000.6,N
1594118155.2,286046998.1,N
1594118175.0,286046998.3,N
1594118175.9,286046998.3,N
1594118195.8,286046998.3,N
1594118215.6,286047000.9,N
1594118235.5,286046998.5,N
1594118255.3,286046998.8,N
1594118275.1,286046999.5,N
1594118295.9,286046997.0,N
1594118315.7,286046999.2,N
1594118335.5,286046999.6,N
1594118355.4,286046996.5,Y
1594118375.2,286046998.6,P
1594118395.1,286046998.1,P
1594118396.0,286046998.1,P
1594118415.8,286046998.4,Y
1594118435.7,286046999.9,P
1594118455.5,286046999.8,N
1594118475.3,286047002.7,P
1594118495.2,286046999.7,N
1594118515.0,286046999.7,N
1594118515.9,286046999.7,N
1594118535.8,286047000.3,N
1594118555.6,286047000.1,N
1594118575.4,286046999.9,N
1594118595.3,286047001.0,N
1594118615.1,286047001.0,N
1594118635.8,286047001.0,N
1594118655.7,286046999.9,N
1594118675.5,286047000.4,N
1594118695.4,286047002.1,N
1594118715.2,286047002.6,N
1594118735.0,286047001.3,N
1594118735.9,286047001.3,N
1594118755.8,286047003.7,Y
1594118775.6,286047002.9,P
1594118795.5,286047003.4,N
1594118815.3,286047003.4,N
1594118835.1,286047001.7,N
1594118855.9,286047002.4,N
1594118875.7,286047002.1,N
1594118895.5,286047002.7,N
1594118915.4,286047002.4,N
1594118935.2,286046999.7,N
1594118955.1,286047002.5,N
1594118956.0,286047002.5,N
1594118975.8,286047002.8,N
1594118995.6,286046999.8,N
1594119015.5,286047002.6,N
1594119035.3,286047000.4,N
1594119055.2,286046999.7,N
1594119075.9,286046999.8,N
1594119095.7,286047002.2,N
1594119115.6,286047004.3,Y
1594119135.4,286046999.9,P
1594119155.2,286047000.0,N
1594119175.1,286047002.5,N
1594119176.0,286047002.5,N
1594119195.8,286047000.5,N
1594119215.7,286047000.4,N
1594119235.5,286047001.2,N
1594119255.3,286047000.1,N
1594119275.2,286047000.5,N
1594119295.0,286046999.9,N
1594119295.9,286046999.9,N
1594119315.8,286047000.8,N
1594119335.6,286047001.1,N
1594119355.4,286047001.1,N
1594119375.3,286046998.5,N
1594119395.1,286046998.3,N
1594119415.9,286046998.7,N
1594119435.7,286046999.1,N
1594119455.5,286046996.6,N
1594119475.4,286046996.7,N
1594119495.2,286046996.8,N
1594119515.0,286046999.3,N
1594119515.9,286046999.3,N
1594119535.8,286047001.1,N
1594119555.6,286046999.0,N
1594119575.5,286046999.0,N
1594119595.3,286047000.7,N
